Pagrindinis puslapis
METAR-TAF:

METAR-TAF

Oro uostai :

Deering, Aliaska, Jungtinės Amerikos Valstijos

platuma: 66-05N, ilguma: 162-45W, Aukštis: 5 m

Dabartinis oras

Ataskaita buvo paskelbta 12 minutes, ne 06:53 UTC
Vėjas 5 kt iš Pietų/Pietvakarių
Temperatūra -26°C
Drėgmė 42%
Slėgis 1019 hPa
Matomumas: 16.1 km
Giedras dangus

METAR: PADE 280653Z AUTO 21005KT 10SM CLR M26/M35 A3008 RMK AO2 SLP187 T12561350 TSNO $

Laikas: 22:05 (07:05 UTC)


TAF: trūkstamas

Orai ataskaitas ir orų prognozės (METAR, TAF).

turimą stotys yra geltonos ir raudonos taškus žemėlapyje.

Perkelti pele per norėdami pamatyti stoties vardą.

Tada spustelėkite, norėdami matyti oro stebėjimo ir prognozės.

Norėdami pakeisti žemėlapį: spustelėkite ant žalios mygtukų su juodo kryžiaus žemyn,; žalią mygtuką su brūkšneliu, jei norite nutolinti; arba žalių rodyklių gretimoms žemėlapius.


METAR-TAF: